This is the latest recevied weather packets stored in our database for station/object AA4XD. If no packets are shown the sender has not sent any weather packets the latest 10 day(s).
| Time | Temp. | Humidity | Pressure | Rain* | Wind** | Luminosity | Snow |
|---|---|---|---|---|---|---|---|
| 1777475787 | 29.44° C | 63% | 1015.9 hPa | 0 mm | - | 833 W/m² | - |
| 1777475484 | 28.89° C | 64% | 1016.2 hPa | 0 mm | - | 829 W/m² | - |
| 1777475179 | 28.33° C | 65% | 1016.2 hPa | 0 mm | - | 802 W/m² | - |
| 1777474876 | 28.33° C | 65% | 1016.5 hPa | 0 mm | - | 598 W/m² | - |
| 1777474571 | 27.78° C | 68% | 1016.4 hPa | 0 mm | - | 571 W/m² | - |
| 1777474269 | 27.78° C | 67% | 1016.5 hPa | 0 mm | - | 447 W/m² | - |
| 1777473965 | 28.33° C | 65% | 1016.2 hPa | 0 mm | - | 527 W/m² | - |
| 1777473663 | 27.78° C | 68% | 1016.3 hPa | 0 mm | - | 512 W/m² | - |
| 1777473359 | 26.67° C | 71% | 1016.1 hPa | 0 mm | - | 533 W/m² | - |
| 1777473055 | 26.67° C | 71% | 1015.9 hPa | 0 mm | - | 273 W/m² | - |
| 1777472751 | 26.67° C | 70% | 1015.8 hPa | 0 mm | - | 272 W/m² | - |
| 1777472448 | 27.22° C | 71% | 1015.8 hPa | 0 mm | - | 275 W/m² | - |
| 1777472146 | 27.22° C | 70% | 1016.1 hPa | 0 mm | - | 282 W/m² | - |
| 1777471845 | 26.67° C | 71% | 1016.3 hPa | 0 mm | - | 519 W/m² | - |
| 1777471542 | 26.67° C | 71% | 1016.2 hPa | 0 mm | - | 320 W/m² | - |
| 1777471239 | 27.22° C | 69% | 1016.3 hPa | 0 mm | - | 229 W/m² | - |
| 1777470936 | 27.78° C | 69% | 1016.1 hPa | 0 mm | - | 363 W/m² | - |
| 1777470633 | 27.22° C | 70% | 1016.4 hPa | 0 mm | - | 481 W/m² | - |
| 1777470328 | 27.22° C | 70% | 1016.7 hPa | 0 mm | - | 455 W/m² | - |
| 1777470026 | 26.67° C | 73% | 1016.8 hPa | 0 mm | - | 391 W/m² | - |
| 1777469721 | 25.56° C | 74% | 1017 hPa | 0 mm | - | 277 W/m² | - |
| 1777469418 | 26.11° C | 72% | 1017 hPa | 0 mm | - | 268 W/m² | - |
| 1777469113 | 26.11° C | 73% | 1017 hPa | 0 mm | - | 333 W/m² | - |
| 1777468812 | 25° C | 76% | 1016.9 hPa | 0 mm | - | 451 W/m² | - |
| 1777468510 | 25° C | 75% | 1016.8 hPa | 0 mm | - | 327 W/m² | - |
* Rain latest hour (hover to see other rain measurements)
** Current wind speed in m/s (hover to see current wind gust speed)